User: anonymous   Login
Location: Montr�al
(45.5000°N, 73.5830°W)
Time: 16:49:07
(UTC-04:00)
Language:

Cosmos 1151 Rocket - Orbit

View from above orbital plane
View from above orbital plane
View from above satellite
View from above satellite

Ground track
Ground track

The orbit data is extracted from the following two-line orbital elements,

1 11672U 80005B   16268.73226475  .00000128  00000-0  11206-4 0  9994
2 11672  82.5169 329.9195 0018195 116.2584 244.0506 14.87814378983922
Epoch (UTC): 24 September 2016 17:34:27
Eccentricity: 0.0018195
inclination: 82.5169°
perigee height: 592 km
apogee height: 617 km
right ascension of ascending node: 329.9195°
argument of perigee: 116.2584°
revolutions per day: 14.87814378
mean anomaly at epoch: 244.0506°
orbit number at epoch: 98392

The dashed part of the orbit path shows where the satellite is in the earth's shadow,  

DLR